KC8YVF-1 Weather Reports


time (UTC)temp
F
wind
direction
speed
knots
gust
knots
rain 1hr
in
rain 24hr
in
rain mn
in
humidity
%
barometer
mb
20260502170510 50 338 0.0 0.0 0.00 0.00 0.00 50 1004.0
20260502164012 49 270 0.0 0.0 0.00 0.00 0.00 50 1004.1
20260502163852 49 270 0.0 0.0 0.00 0.00 0.00 50 1004.0
20260502163511 49 270 0.0 0.0 0.00 0.00 0.00 51 1004.0
20260502162510 48 270 0.0 0.0 0.00 0.00 0.00 51 1004.4
20260502162353 49 270 0.0 0.0 0.00 0.00 0.00 52 1004.4
20260502162010 49 293 0.0 0.0 0.00 0.00 0.00 52 1004.4
20260502161512 49 270 0.0 0.0 0.00 0.00 0.00 52 1004.4
20260502161011 48 293 0.0 0.0 0.00 0.00 0.00 52 1004.4
20260502160852 48 315 0.0 0.0 0.00 0.00 0.00 54 1004.4
20260502160510 47 0 0.0 0.0 0.00 0.00 0.00 54 1004.4
20260502152011 44 338 0.0 0.0 0.00 0.00 0.00 58 1004.4
20260502151510 44 293 0.0 0.0 0.00 0.00 0.00 58 1004.4
20260502151010 44 315 0.0 0.0 0.00 0.00 0.00 58 1004.4
20260502150853 43 315 0.0 0.0 0.00 0.00 0.00 59 1004.4
20260502150511 43 338 0.0 0.0 0.00 0.00 0.00 59 1004.4
20260502130510 42 338 0.0 0.0 0.00 0.00 0.00 69 1005.0
20260502123511 40 338 0.0 0.0 0.00 0.00 0.00 72 1005.0
20260502123011 40 338 0.0 0.0 0.00 0.00 0.00 73 1005.0
20260502122511 40 338 0.0 0.0 0.00 0.00 0.00 74 1005.3
20260502122352 40 338 0.0 0.0 0.00 0.00 0.00 74 1005.2
20260502122011 39 0 0.0 0.0 0.00 0.00 0.00 74 1005.0
20260502121510 38 0 0.0 0.0 0.00 0.00 0.00 75 1005.1
20260502120853 38 338 0.0 0.0 0.00 0.00 0.00 76 1005.0
20260502120511 37 338 0.0 0.0 0.00 0.00 0.00 76 1005.0
20260502115352 34 293 0.0 0.0 0.00 0.00 0.00 77 1005.0
20260502115011 34 270 0.0 0.0 0.00 0.00 0.00 77 1005.0
20260502114510 33 315 0.0 0.0 0.00 0.00 0.00 77 1005.0
20260502113854 32 293 0.0 0.0 0.00 0.00 0.00 76 1005.0
20260502113510 32 293 0.0 0.0 0.00 0.00 0.00 76 1005.0
20260502113012 32 293 0.0 0.0 0.00 0.00 0.00 75 1005.0
20260502112354 32 315 0.0 0.0 0.00 0.00 0.00 75 1004.7
20260502111510 31 315 0.0 0.0 0.00 0.00 0.00 74 1005.0
20260502111011 31 315 0.0 0.0 0.00 0.00 0.00 74 1004.9
20260502110852 31 315 0.0 0.0 0.00 0.00 0.00 74 1005.0
20260502110510 31 315 0.0 0.0 0.00 0.00 0.00 74 1005.0
20260502110011 31 315 0.0 0.0 0.00 0.00 0.00 73 1004.9
20260502105511 31 315 0.0 0.0 0.00 0.00 0.00 73 1004.7
20260502105353 31 315 0.0 0.0 0.00 0.00 0.00 73 1004.7
20260502105010 31 315 0.0 0.0 0.00 0.00 0.00 73 1004.9
20260502104511 31 315 0.0 0.0 0.00 0.00 0.00 73 1004.7
20260502104012 32 315 0.0 0.0 0.00 0.00 0.00 73 1004.7
20260502103854 32 315 0.0 0.0 0.00 0.00 0.00 73 1004.7
20260502103010 32 315 0.0 0.0 0.00 0.00 0.00 72 1004.4
20260502102511 32 315 0.0 0.0 0.00 0.00 0.00 72 1004.4
20260502102352 32 315 0.0 0.0 0.00 0.00 0.00 72 1004.4
20260502102010 32 315 0.0 0.0 0.00 0.00 0.00 72 1004.4
20260502101510 33 315 0.0 0.0 0.00 0.00 0.00 72 1004.4
20260502101011 33 315 0.0 0.0 0.00 0.00 0.00 72 1004.4
20260502100852 33 315 0.0 0.0 0.00 0.00 0.00 72 1004.4
20260502100510 33 315 0.0 0.0 0.00 0.00 0.00 72 1004.4
20260502091511 34 315 0.0 0.0 0.00 0.00 0.00 70 1004.4
20260502091011 34 315 0.0 0.0 0.00 0.00 0.00 70 1004.4
20260502090852 34 315 0.0 0.0 0.00 0.00 0.00 70 1004.4
20260502090511 34 315 0.0 0.0 0.00 0.00 0.00 70 1004.2
20260502071510 37 315 0.0 0.0 0.00 0.00 0.00 66 1003.7
20260502071011 37 315 0.0 0.0 0.00 0.00 0.00 66 1003.7
20260502070851 37 315 0.0 0.0 0.00 0.00 0.00 65 1003.7
20260502070010 37 315 0.0 0.0 0.00 0.00 0.00 65 1003.7
20260502065510 38 315 0.0 0.0 0.00 0.00 0.00 65 1003.7
20260502065351 38 315 0.0 0.0 0.00 0.00 0.00 65 1004.0
20260502065009 38 315 0.0 0.0 0.00 0.00 0.00 65 1003.7
20260502064510 38 315 0.0 0.0 0.00 0.00 0.00 65 1004.0
20260502064010 38 315 0.0 0.0 0.00 0.00 0.00 65 1004.0
20260502063851 38 315 0.0 0.0 0.00 0.00 0.00 64 1003.8
20260502063509 38 315 0.0 0.0 0.00 0.00 0.00 64 1004.0
20260502063009 38 315 0.0 0.0 0.00 0.00 0.00 64 1003.9
20260502062352 38 315 0.0 0.0 0.00 0.00 0.00 63 1004.0
20260502062009 38 315 0.0 0.0 0.00 0.00 0.00 63 1004.0
20260502061511 39 315 0.0 0.0 0.00 0.00 0.00 63 1004.0
20260502061010 39 315 0.0 0.0 0.00 0.00 0.00 63 1004.0
20260502060851 39 315 0.0 0.0 0.00 0.00 0.00 63 1004.0
20260502060509 39 315 0.0 0.0 0.00 0.00 0.00 63 1004.0
20260502060009 39 315 0.0 0.0 0.00 0.00 0.00 63 1004.0
20260502055509 39 315 0.0 0.0 0.00 0.00 0.00 63 1004.0
20260502055352 39 315 0.0 0.0 0.00 0.00 0.00 62 1004.0
20260502055009 39 315 0.0 0.0 0.00 0.00 0.00 62 1004.0
20260502054509 39 315 0.0 0.0 0.00 0.00 0.00 62 1004.0
20260502054010 39 315 0.0 0.0 0.00 0.00 0.00 61 1004.0
20260502053851 39 315 0.0 0.0 0.00 0.00 0.00 61 1004.0
20260502053510 39 315 0.0 0.0 0.00 0.00 0.00 61 1004.0
20260502053010 39 315 0.0 0.0 0.00 0.00 0.00 61 1003.9
20260502052509 39 338 0.0 0.0 0.00 0.00 0.00 61 1003.7
20260502052351 39 315 0.0 0.0 0.00 0.00 0.00 61 1003.9
20260502052008 39 315 0.0 0.0 0.00 0.00 0.00 61 1003.7
20260502050850 40 338 0.0 0.0 0.00 0.00 0.00 60 1003.7
20260502050511 40 338 0.0 0.0 0.00 0.00 0.00 60 1003.8
20260502050008 40 338 0.0 0.0 0.00 0.00 0.00 60 1003.7
20260502045510 40 338 0.0 0.0 0.00 0.00 0.00 60 1003.7
20260502045351 40 338 0.0 0.0 0.00 0.00 0.00 60 1003.7
20260502045009 40 338 0.0 0.0 0.00 0.00 0.00 60 1003.7
20260502044508 40 315 0.0 0.0 0.00 0.00 0.00 60 1003.7
20260502043851 40 315 0.0 0.0 0.00 0.00 0.00 60 1003.7
20260502042509 40 315 0.0 0.0 0.00 0.00 0.00 60 1003.7
20260502042350 40 315 0.0 0.0 0.00 0.00 0.00 60 1003.7
20260502042009 40 315 0.0 0.0 0.00 0.00 0.00 60 1003.7
20260502041509 40 315 0.0 0.0 0.00 0.00 0.00 60 1003.7
20260502041009 40 338 0.0 0.0 0.00 0.00 0.00 60 1003.7
20260502040851 40 338 0.0 0.0 0.00 0.00 0.00 60 1003.7
20260502040508 40 315 0.0 0.0 0.00 0.00 0.00 60 1003.7
20260502040009 40 338 0.0 0.0 0.00 0.00 0.00 59 1003.7
20260502035508 40 338 0.0 0.0 0.00 0.00 0.00 59 1003.7
20260502035351 40 338 0.0 0.0 0.00 0.00 0.00 59 1003.7
20260502035009 40 338 0.0 0.0 0.00 0.00 0.00 59 1003.7
20260502034508 40 338 0.0 0.0 0.00 0.00 0.00 59 1003.4
20260502034009 41 338 0.0 0.0 0.00 0.00 0.00 58 1003.7
20260502033850 41 338 0.0 0.0 0.00 0.00 0.00 58 1003.7
20260502033509 41 338 0.0 0.0 0.00 0.00 0.00 58 1003.6
20260502033008 41 315 0.0 0.0 0.00 0.00 0.00 58 1003.3
20260502032508 41 338 0.0 0.0 0.00 0.00 0.00 58 1003.3
20260502032351 41 338 0.0 0.0 0.00 0.00 0.00 58 1003.3
20260502032008 41 315 0.0 0.0 0.00 0.00 0.00 58 1003.3
20260502031509 41 315 0.0 0.0 0.00 0.00 0.00 58 1003.5
20260502031009 41 315 0.0 0.0 0.00 0.00 0.00 57 1003.4
20260502030850 41 338 0.0 0.0 0.00 0.00 0.00 57 1003.6
20260502030508 41 338 0.0 0.0 0.00 0.00 0.00 57 1003.4
20260502030009 41 338 0.0 0.0 0.00 0.00 0.00 57 1003.3
20260502025509 41 338 0.0 0.0 0.00 0.00 0.00 57 1003.3
20260502025350 41 338 0.0 0.0 0.00 0.00 0.00 57 1003.3
20260502025009 41 315 0.0 0.0 0.00 0.00 0.00 57 1003.3
20260502024009 41 338 0.0 0.0 0.00 0.00 0.00 57 1003.2
20260502023850 41 338 0.0 0.0 0.00 0.00 0.00 57 1003.2
20260502023510 42 338 0.0 0.0 0.00 0.00 0.00 57 1003.3
20260502022507 42 315 0.0 0.0 0.00 0.00 0.00 57 1003.3
20260502022350 42 338 0.0 0.0 0.00 0.00 0.00 57 1003.3
20260502021008 42 338 0.0 0.0 0.00 0.00 0.00 57 1003.1
20260502020849 42 315 0.0 0.0 0.00 0.00 0.00 57 1003.2
20260502020508 42 338 0.0 0.0 0.00 0.00 0.00 57 1003.0
20260502015509 42 315 0.0 0.0 0.00 0.00 0.00 57 1003.0
20260502015350 42 315 0.0 0.0 0.00 0.00 0.00 57 1003.0
20260502015008 42 315 0.0 0.0 0.00 0.00 0.00 57 1003.0
20260502014509 42 338 0.0 0.0 0.00 0.00 0.00 57 1003.0
20260502014009 42 338 0.0 0.0 0.00 0.00 0.00 57 1003.0
20260502013850 42 315 0.0 0.0 0.00 0.00 0.00 57 1003.0
20260502013508 42 338 0.0 0.0 0.00 0.00 0.00 57 1003.0
20260502012509 42 315 0.0 0.0 0.00 0.00 0.00 57 1002.9
20260502012350 42 315 0.0 0.0 0.00 0.00 0.00 56 1003.0
20260502010850 42 338 0.0 0.0 0.00 0.00 0.00 56 1002.7
20260502005350 43 0 0.0 0.0 0.00 0.00 0.00 55 1002.7
20260502004508 43 315 0.0 0.0 0.00 0.00 0.00 55 1002.7
20260502004008 43 315 0.0 0.0 0.00 0.00 0.00 55 1002.7
20260502003849 43 338 0.0 0.0 0.00 0.00 0.00 55 1002.3
20260502003007 43 315 0.0 0.0 0.00 0.00 0.00 55 1002.3
20260502002507 43 315 0.0 0.0 0.00 0.00 0.00 54 1002.3
20260502002350 43 338 0.0 0.0 0.00 0.00 0.00 54 1002.3
20260502002008 43 338 0.0 0.0 0.00 0.00 0.00 54 1002.3
20260502001509 44 315 0.0 0.0 0.00 0.00 0.00 54 1002.3
20260502001007 44 293 0.0 0.0 0.00 0.00 0.00 54 1002.3
20260502000850 44 315 0.0 0.0 0.00 0.00 0.00 54 1002.3
20260502000007 44 315 0.0 0.0 0.00 0.00 0.00 54 1002.3
20260501235350 44 338 0.0 0.0 0.00 0.00 0.00 54 1002.3
20260501234507 44 338 0.0 0.0 0.00 0.00 0.00 54 1002.0
20260501234006 44 315 0.0 0.0 0.00 0.00 0.00 54 1002.0
20260501233849 44 338 0.0 0.0 0.00 0.00 0.00 54 1002.0
20260501233508 44 293 0.0 0.0 0.00 0.00 0.00 54 1002.0
20260501233007 44 315 0.0 0.0 0.00 0.00 0.00 54 1002.0
20260501232507 45 338 0.0 0.0 0.00 0.00 0.00 54 1002.0
20260501232350 45 338 0.0 0.0 0.00 0.00 0.00 54 1002.0
20260501232007 45 315 0.0 0.0 0.00 0.00 0.00 54 1002.0
20260501230848 45 338 0.0 0.0 0.00 0.00 0.00 53 1002.0
20260501230007 46 338 0.0 0.0 0.00 0.00 0.00 53 1001.6
20260501225350 46 315 0.0 0.0 0.00 0.00 0.00 53 1001.6
20260501225009 46 293 0.0 0.0 0.00 0.00 0.00 53 1001.6
20260501224007 46 315 0.0 0.0 0.00 0.00 0.00 53 1001.6
20260501223848 46 270 0.0 0.0 0.00 0.00 0.00 53 1001.6
20260501223007 46 293 0.0 0.0 0.00 0.00 0.00 53 1001.6
20260501222350 46 315 0.0 0.0 0.00 0.00 0.00 53 1001.6
20260501222008 47 315 0.0 0.0 0.00 0.00 0.00 53 1001.6
20260501221507 47 315 0.0 0.0 0.00 0.00 0.00 53 1001.6
20260501221008 47 315 0.0 0.0 0.00 0.00 0.00 52 1001.3
20260501220848 47 338 0.0 0.0 0.00 0.00 0.00 53 1001.3
20260501220507 47 315 0.0 0.0 0.00 0.00 0.00 53 1001.3
20260501220007 47 293 0.0 0.0 0.00 0.00 0.00 53 1001.3
20260501215348 47 315 0.0 0.0 0.00 0.00 0.00 53 1001.3
20260501214506 47 315 0.0 0.0 0.00 0.00 0.00 53 1001.3
20260501214007 47 270 0.0 0.0 0.00 0.00 0.00 53 1001.3
20260501213848 47 338 0.0 0.0 0.00 0.00 0.00 53 1001.3
20260501213006 47 315 0.0 0.0 0.00 0.00 0.00 53 1001.3
20260501212508 47 315 0.0 0.0 0.00 0.00 0.00 53 1001.3
20260501212348 47 338 0.0 0.0 0.00 0.00 0.00 53 1001.3
20260501212006 47 338 0.0 0.0 0.00 0.00 0.00 53 1001.3
20260501211507 47 338 0.0 0.0 0.00 0.00 0.00 53 1001.2
20260501211006 47 338 0.0 0.0 0.00 0.00 0.00 53 1001.0
20260501210849 47 315 0.0 0.0 0.00 0.00 0.00 52 1001.0
20260501210506 48 338 0.0 0.0 0.00 0.00 0.00 52 1001.0
20260501210007 48 293 0.0 0.0 0.00 0.00 0.00 52 1001.0
20260501205349 49 315 0.0 0.0 0.00 0.00 0.00 53 1001.0
20260501205006 49 338 0.0 0.0 0.00 0.00 0.00 53 1001.1
20260501204006 48 315 0.0 0.0 0.00 0.00 0.00 53 1001.2
20260501203848 48 338 0.0 0.0 0.00 0.00 0.00 54 1001.3
20260501203507 48 315 0.0 0.0 0.00 0.00 0.00 55 1001.3
20260501203006 48 338 0.0 0.0 0.00 0.00 0.00 55 1001.3
20260501202348 47 315 0.0 0.0 0.00 0.00 0.00 54 1001.3
20260501202007 47 315 0.0 0.0 0.00 0.00 0.00 55 1001.3
20260501201007 47 293 0.0 0.0 0.00 0.00 0.00 55 1001.0
20260501200848 47 293 0.0 0.0 0.00 0.00 0.00 55 1001.0
20260501200507 47 293 0.0 0.0 0.00 0.00 0.00 55 1001.0
20260501195507 47 270 0.0 0.0 0.00 0.00 0.00 55 1001.0
20260501195348 47 270 0.0 0.0 0.00 0.00 0.00 55 1001.0
20260501195007 47 270 0.0 0.0 0.00 0.00 0.00 55 1001.0
20260501193848 47 338 0.0 0.0 0.00 0.00 0.00 56 1001.0
20260501193506 47 315 0.0 0.0 0.00 0.00 0.00 55 1001.0
20260501192348 49 0 0.0 0.0 0.00 0.00 0.00 55 1001.0
20260501192007 49 23 0.0 0.0 0.00 0.00 0.00 56 1001.0
20260501191007 49 23 0.0 0.0 0.00 0.00 0.00 56 1001.0
20260501190849 49 338 0.0 0.0 0.00 0.00 0.00 57 1001.0
20260501190506 48 338 0.0 0.0 0.00 0.00 0.00 58 1001.0
20260501185507 47 270 0.0 0.0 0.00 0.00 0.00 57 1001.0
20260501185348 47 293 0.0 0.0 0.00 0.00 0.00 58 1001.0
20260501185007 47 293 0.0 0.0 0.00 0.00 0.00 58 1001.0
20260501183848 47 338 0.0 0.0 0.00 0.00 0.00 59 1001.0
20260501183507 47 338 0.0 0.0 0.00 0.00 0.00 59 1001.0
20260501182508 46 315 0.0 0.0 0.00 0.00 0.00 60 1001.0
20260501182350 46 338 0.0 0.0 0.00 0.00 0.00 60 1001.0
20260501182006 46 338 0.0 0.0 0.00 0.00 0.00 60 1001.0
20260501181506 46 270 0.0 0.0 0.00 0.00 0.00 60 1001.0
20260501181009 46 68 0.0 0.0 0.00 0.00 0.00 59 1001.0
20260501180848 46 90 0.0 0.0 0.00 0.00 0.00 59 1001.0
20260501180506 46 90 0.0 0.0 0.00 0.00 0.00 59 1001.0
20260501175507 46 90 0.0 0.0 0.00 0.00 0.00 59 1001.0
20260501175348 47 90 0.0 0.0 0.00 0.00 0.00 59 1001.0
20260501175007 47 338 0.0 0.0 0.00 0.00 0.00 60 1001.0
20260501174506 47 315 0.0 0.0 0.00 0.00 0.00 60 1001.0
20260501174007 47 338 0.0 0.0 0.00 0.00 0.00 60 1001.0
20260501173850 47 0 0.0 0.0 0.00 0.00 0.00 60 1001.0
20260501173506 47 338 0.0 0.0 0.00 0.00 0.00 60 1001.0
20260501173006 47 338 0.0 0.0 0.00 0.00 0.00 59 1001.0
20260501172349 47 338 0.0 0.0 0.00 0.00 0.00 58 1001.0